Showing default

ALMUNTHER, 63240

Orbit data source: Space-Track

ALMUNTHER, 63240 is a Bahraini payload satellite in SSO that was launched on Sat, 15 Mar 2025 UTC via an FALCON 9 launch vehicle from the Air Force Western Test Range (AFWTR). Payload-class satellites include a variety of spacecraft equipped with specific instruments for various scientific and technological missions. These include communications satellites like Starlink; space stations such as the ISS; scientific satellites like the Hubble; Earth observation satellites from companies like Planet Labs, Umbra, and HawkEye 360; GPS; miniature CubeSats for education and research; and military/defense satellites.

Loading next visibility...
Identifier
63240, 2025-052AG
Orbit
SSO
Country
Flag of BHBH / BHR
Related business
Manufacturer
AMAN/BNSSA
Mission
Operational Civil Technology
Bus & Motor
CUBESAT 3U?, Unknown motor
Mass
3 kg wet, 3 kg dry
Launch date (UTC)
2025-03-15 (11 months ago)
Launch vehicle
FALCON 9
Launch site
Air Force Western Test Range (AFWTR)
Object type
Payload
Rocket body
Debris
Shape & HBR
Box, 0.1 m
Radar Cross Section
0.035 m², Small (<0.1 m²)

Expand to show TLE details & history
Last TLE update: 10 hours ago

TLE from 10 hours ago
0 ALMUNTHER
1 63240U 25052AG  26036.68166843  .00029811  00000-0  11206-2 0  9991
2 63240  97.4046 292.1795 0004826 252.5883 107.4829 15.27103004 49912
Epoch: 2026-02-05T16:21Z
TLE epoch observation values (Epoch: 2026-02-05T16:21:36.152Z)
Latitude
0.00003°
Longitude
-89.05154°
Altitude
488.574 km
Speed
7.62 km/s
True Right ascension
19h 28m 43s
True Declination
0° 00' 00"
Sunlit
Object was in daylight at epoch
Visualization orbit readout
Latitude
Unknown
Longitude
Unknown
Altitude
Unknown
Speed
Unknown
Apparent Right ascension
Unknown
Apparent Declination
Unknown
Sunlit
N/A
Visualization observer readout
Local Sidereal Time
04:37:06
Azimuth
Unknown
Elevation
Unknown
Doppler factor
Unknown
Orbital elements
Apogee altitude
484.744 km
Perigee altitude
478.124 km
Semi-major axis
6,859.571 km
Eccentricity
0.00048
Inclination
97.4046°
RAAN
292.1795°
Arg. of periapsis
252.5883°
True anomaly
107.53564°
Mean anomaly
107.4829°
Eccentric anomaly
107.50927°
Mean motion
3.8203 °/min
Orbital period
94.23 mins
BSTAR
0.0011206
Loading maneuver chart data...
Computing Atmospheric mass density...
Loading historical data...
Loading historical data...
Loading historical data...
Loading historical data...
Loading historical data...
Loading historical data...
Loading historical data...

Documentation

Showing up to 5 results
|